[[{"header":{"parameterUnit":"m.s-1","parameterCategory":2,"la1":30.2991,"la2":30.254,"lo1":-89.0895,"lo2":-89.0444,"dy":0.0017,"dx":0.0017,"nx":28,"ny":28,"refTime":"2024-06-22T09:00:00:Z","depth":"0","parameterNumber":2,"parameterNumberName":"U-component_of_CURRENTS"},"data":[0,0,0,0,0,0,0,0,0,0,0,0,0,0,0,0,0,0,0,0,0,0,0,0,0,0,0,0,0,0,0,0,0,0,0,0,0,0,0,0,0,0,0,0,0,0,0,0,0,0,0,0,0,0,0,0,0,0,0.2367,0.2369,0,0.2494,0.2496,0.2497,0.2543,0.2543,0.2543,0.2543,0.2577,0.2577,0.2578,0,0,0,0,0,0,0,0,0,0,0,0,0,0.2153,0.2157,0.2367,0.2369,0.2371,0.2494,0.2496,0.2497,0.2543,0.2543,0.2543,0.2543,0.2576,0.2577,0.2578,0,0,0,0,0,0,0,0,0,0,0,0,0,0.2256,0.2158,0.2367,0.2413,0.2418,0.2494,0.2496,0.2497,0.2543,0.2543,0.2543,0.2543,0.2576,0.2577,0.2579,0.2587,0,0,0.2583,0.2583,0,0,0,0,0,0,0,0,0.225,0.2263,0.2404,0.241,0.2416,0.2507,0.2433,0.2524,0.2543,0.2491,0.2543,0.2543,0.2547,0.2551,0.257,0.2589,0.259,0.2583,0.2584,0.2584,0.2585,0,0,0,0,0,0,0,0.2243,0.2258,0.2413,0.2406,0.2414,0.2423,0.2437,0.245,0.2513,0.2496,0.2501,0.2522,0.255,0.2569,0.2571,0.2591,0.2583,0.2584,0.2585,0.2585,0.2661,0.2662,0,0,0,0,0,0,0.2237,0.2251,0.2409,0.2417,0.2336,0.2427,0.2443,0.2474,0.2515,0.2523,0.2522,0.2524,0.2567,0.2569,0.2572,0.2627,0.2584,0.2585,0.2586,0.266,0.2661,0.2662,0,0,0,0,0,0,0.2232,0.225,0.2404,0.234,0.2361,0.2432,0.2466,0.2477,0.25,0.2536,0.2542,0.2534,0.2567,0.257,0.2598,0.2627,0.2586,0.2587,0.2658,0.266,0.2662,0.2709,0,0,0,0,0,0,0.2226,0.2248,0.2267,0.234,0.2364,0.2446,0.2467,0.2479,0.2515,0.2518,0.2549,0.2552,0.2567,0.2596,0.2599,0.2628,0.2588,0.2657,0.2659,0.2661,0.2706,0.2712,0.2717,0,0,0,0,0,0.2218,0.2242,0.2267,0.2287,0.2389,0.2446,0.2459,0.2505,0.2515,0.2525,0.2555,0.2551,0.2613,0.2598,0.2602,0.2631,0.2656,0.2658,0.2661,0.2703,0.2711,0.2717,0,0,0,0,0,0,0.2164,0.2252,0.2281,0.2333,0.2385,0.2456,0.2474,0.2504,0.2537,0.2537,0.2564,0.257,0.2603,0.2609,0.2592,0.266,0.2634,0.2638,0.2665,0.2672,0.2678,0.27,0.2589,0,0,0,0,0,0.2162,0.2202,0.2281,0.2322,0.2345,0.2408,0.2437,0.2468,0.2511,0.2526,0.2553,0.2583,0.2618,0.2637,0.2655,0.2691,0.2736,0.2713,0.2719,0.2724,0.2745,0.2848,0.2866,0.2671,0.2671,0.2671,0,0,0.2158,0.2208,0.2235,0.2312,0.2354,0.2409,0.2423,0.2465,0.2516,0.2522,0.258,0.2594,0.2629,0.2675,0.2691,0.2685,0.2801,0.2727,0.2732,0.2751,0.2853,0.2873,0.289,0.2673,0.2673,0.2673,0,0,0.2168,0.2207,0.2246,0.229,0.2355,0.2397,0.2408,0.2476,0.2506,0.2562,0.2585,0.2625,0.2668,0.2715,0.2742,0.2791,0.2821,0.2784,0.2845,0.2944,0.2962,0.2978,0.3055,0.3078,0.2798,0.2798,0.2798,0,0.2167,0.2228,0.2263,0.2312,0.2356,0.2394,0.2447,0.249,0.2559,0.2595,0.2582,0.2691,0.27,0.2798,0.2814,0.2807,0.2861,0.2815,0.2955,0.2972,0.2987,0.3063,0.3087,0.28,0.28,0.28,0.28,0,0.2214,0.2263,0.2282,0.2367,0.241,0.2452,0.2521,0.2558,0.2592,0.2647,0.2728,0.2761,0.2838,0.2839,0.2843,0.2958,0.2959,0.2943,0.2941,0.301,0.3084,0.3109,0.2804,0.2803,0.2802,0.2802,0,0,0.2222,0.2305,0.2313,0.2356,0.244,0.2482,0.2556,0.2645,0.2718,0.2763,0.2868,0.2918,0.2941,0.2974,0.2987,0.3063,0.3203,0.3053,0.3057,0.3136,0.3424,0.3404,0.3428,0.3219,0.3223,0.3227,0.343,0,0.2256,0.2338,0.2378,0.2463,0.2514,0.2567,0.2644,0.2723,0.2793,0.2895,0.2944,0.3037,0.2996,0.3044,0.3115,0.3187,0.3271,0.3149,0.3339,0.3345,0.3325,0.3458,0.3414,0.3591,0.3454,0.3458,0.3461,0,0.2294,0.2346,0.2424,0.2521,0.255,0.2607,0.2733,0.2811,0.2948,0.3007,0.3106,0.3155,0.3279,0.3225,0.3411,0.3339,0.3391,0.3432,0.3441,0.3428,0.3372,0.35,0.3641,0.3594,0.3499,0.3496,0.3493,0,0.2274,0.2377,0.2433,0.2469,0.2587,0.2633,0.2705,0.284,0.2928,0.3093,0.3183,0.3317,0.3416,0.3504,0.3579,0.3521,0.3777,0.3709,0.3741,0.3739,0.3744,0.3735,0.3871,0.3854,0.3853,0.3853,0.3852,0,0.2292,0.2338,0.2426,0.246,0.2545,0.2632,0.2749,0.2843,0.3005,0.3121,0.3242,0.3368,0.3496,0.3639,0.3667,0.3804,0.3863,0.3798,0.3814,0.3755,0.3745,0.3733,0.3662,0.386,0.3859,0.3857,0.3856,0,0.2256,0.2314,0.2382,0.2495,0.2533,0.2594,0.2754,0.2843,0.3011,0.3174,0.3234,0.3464,0.3662,0.3775,0.3953,0.3942,0.3962,0.4066,0.3976,0.3977,0.3918,0.3849,0.3799,0.3681,0.4149,0.415,0.4151,0,0.2243,0.2271,0.238,0.2416,0.2461,0.2567,0.2638,0.2816,0.2914,0.3213,0.3281,0.3555,0.3722,0.4003,0.4076,0.4195,0.4031,0.4178,0.4047,0.396,0.3897,0.3659,0.3544,0.4076,0.4076,0.4076,0.4076,0,0.2209,0.2238,0.2287,0.2367,0.243,0.2519,0.2635,0.2716,0.2928,0.3104,0.3343,0.3521,0.3836,0.3989,0.4164,0.4201,0.4005,0.4182,0.4145,0.3912,0.3614,0.3492,0.3872,0.4078,0.4077,0.4077,0.4077,0.4077,0.2162,0.218,0.2239,0.2311,0.2377,0.2448,0.2499,0.2646,0.2817,0.3054,0.327,0.352,0.3845,0.4116,0.4114,0.4159,0.4017,0.4098,0.4045,0.3829,0.364,0.4007,0.4182,0.4182,0.4183,0.4183,0.4183,0,0.2106,0.2133,0.2186,0.2256,0.2291,0.2365,0.2474,0.2522,0.2677,0.2944,0.3167,0.3553,0.3775,0.3971,0.4166,0.4073,0.3823,0.399,0.3684,0.3591,0.4026,0.3952,0.402,0.402,0.402,0.402,0.402,0.402,0.2069,0.209,0.2127,0.2158,0.2201,0.2231,0.2273,0.2368,0.2531,0.2813,0.3057,0.3282,0.3726,0.4066,0.411,0.4015,0.3688,0.3562,0.3455,0.3839,0.3845,0.385,0.3768,0.3796,0.3795,0.2915,0.2909,0.2905]},{"header":{"parameterUnit":"m.s-1","parameterCategory":2,"la1":30.2991,"la2":30.254,"lo1":-89.0895,"lo2":-89.0444,"dy":0.0017,"dx":0.0017,"nx":28,"ny":28,"refTime":"2024-06-22T09:00:00:Z","depth":"0","parameterNumber":3,"parameterNumberName":"V-component_of_CURRENTS"},"data":[0,0,0,0,0,0,0,0,0,0,0,0,0,0,0,0,0,0,0,0,0,0,0,0,0,0,0,0,0,0,0,0,0,0,0,0,0,0,0,0,0,0,0,0,0,0,0,0,0,0,0,0,0,0,0,0,0,0,-0.013,-0.013,0,-0.0161,-0.0162,-0.0162,-0.0236,-0.0238,-0.0239,-0.024,-0.0274,-0.0274,-0.0273,0,0,0,0,0,0,0,0,0,0,0,0,0,-0.0169,-0.0168,-0.013,-0.013,-0.013,-0.0161,-0.0162,-0.0162,-0.0236,-0.0238,-0.0239,-0.0241,-0.0274,-0.0274,-0.0273,0,0,0,0,0,0,0,0,0,0,0,0,0,-0.0174,-0.0168,-0.013,-0.0169,-0.0172,-0.0161,-0.0162,-0.0162,-0.0236,-0.0238,-0.024,-0.0241,-0.0274,-0.0274,-0.0273,-0.0233,0,0,-0.0272,-0.0272,0,0,0,0,0,0,0,0,-0.0174,-0.0173,-0.0163,-0.0166,-0.017,-0.0194,-0.0188,-0.0185,-0.0235,-0.0215,-0.024,-0.0242,-0.0244,-0.0246,-0.0252,-0.0234,-0.0236,-0.0272,-0.0272,-0.0271,-0.0271,0,0,0,0,0,0,0,-0.0173,-0.0172,-0.0146,-0.0163,-0.0167,-0.0196,-0.0198,-0.0188,-0.0221,-0.0217,-0.0222,-0.0219,-0.0247,-0.0252,-0.0253,-0.0236,-0.0272,-0.0272,-0.0271,-0.0271,-0.0216,-0.0215,0,0,0,0,0,0,-0.0159,-0.0171,-0.0145,-0.0146,-0.0173,-0.0193,-0.0196,-0.0187,-0.0221,-0.0227,-0.0218,-0.0223,-0.0252,-0.0254,-0.0255,-0.0213,-0.0271,-0.0271,-0.0271,-0.0217,-0.0216,-0.0214,0,0,0,0,0,0,-0.0159,-0.0156,-0.0143,-0.0158,-0.0158,-0.019,-0.0179,-0.0186,-0.0196,-0.0221,-0.0229,-0.022,-0.0254,-0.0255,-0.0241,-0.0215,-0.0271,-0.027,-0.0219,-0.0217,-0.0215,-0.0126,0,0,0,0,0,0,-0.016,-0.0156,-0.0134,-0.0156,-0.0156,-0.0115,-0.0177,-0.0186,-0.019,-0.0197,-0.0224,-0.023,-0.0255,-0.0241,-0.024,-0.0215,-0.027,-0.022,-0.0218,-0.0216,-0.013,-0.0121,-0.0114,0,0,0,0,0,-0.0161,-0.0106,-0.0133,-0.0129,-0.0128,-0.0113,-0.0115,-0.0148,-0.0188,-0.0169,-0.02,-0.0229,-0.0227,-0.0239,-0.0239,-0.0213,-0.0221,-0.0218,-0.0216,-0.0134,-0.0123,-0.0114,0,0,0,0,0,0,-0.0089,-0.0109,-0.0138,-0.0088,-0.0097,-0.0124,-0.0101,-0.0138,-0.0148,-0.0159,-0.0204,-0.0209,-0.0191,-0.0209,-0.0221,-0.0192,-0.0232,-0.0229,-0.017,-0.016,-0.0152,-0.0143,-0.027,0,0,0,0,0,-0.0068,-0.0048,-0.0071,-0.003,-0.0032,-0.0072,-0.007,-0.0095,-0.0112,-0.0121,-0.0146,-0.017,-0.0176,-0.0174,-0.0181,-0.0151,-0.0192,-0.0138,-0.0129,-0.0122,-0.0115,-0.0163,-0.0159,-0.0206,-0.0206,-0.0206,0,0,-0.0029,-0.0036,-0.0024,-0.0017,-0.0031,-0.001,-0.0075,-0.0059,-0.0049,-0.0117,-0.0104,-0.0136,-0.0163,-0.0141,-0.0134,-0.0152,-0.0128,-0.0119,-0.0112,-0.0109,-0.016,-0.0156,-0.0152,-0.0204,-0.0204,-0.0204,0,0,0.0059,0.0051,0.0088,0.0083,0.0073,0.0053,0.0059,0.0031,0.0013,0.0025,-0.0032,-0.005,-0.0048,-0.0073,-0.0083,-0.0028,-0.0084,-0.0028,0.0028,-0.0018,-0.0015,-0.0012,-0.0049,-0.0051,-0.0021,-0.002,-0.002,0,0.0105,0.0142,0.0107,0.0136,0.0142,0.0084,0.0122,0.0108,0.0085,0.0077,0.0045,0.001,-0.0018,-0.0009,0.0001,-0.0009,-0.0042,-0.0007,-0.0007,-0.0006,-0.0006,-0.0044,-0.0047,-0.0016,-0.0016,-0.0017,-0.0017,0,0.0199,0.023,0.0259,0.0262,0.0269,0.03,0.0266,0.0265,0.0227,0.0197,0.0188,0.0138,0.0112,0.01,0.0069,0.0067,0.0039,0.0005,-0.0034,0.0004,-0.0038,-0.0043,-0.0009,-0.0011,-0.0012,-0.0013,0,0,0.0298,0.0319,0.0326,0.0339,0.0333,0.0348,0.0371,0.0371,0.038,0.0335,0.0341,0.0299,0.0245,0.0229,0.0177,0.0135,0.0106,0.0081,0.0076,0.0044,0.0011,-0.0005,-0.0013,0.007,0.0069,0.0069,-0.0017,0,0.0378,0.0457,0.044,0.0506,0.0542,0.0493,0.0519,0.0504,0.0479,0.0473,0.0394,0.0384,0.0304,0.0291,0.0236,0.0146,0.0096,0.0133,-0.0021,-0.0025,-0.0045,-0.0018,0.0014,-0.006,-0.0023,-0.0024,-0.0024,0,0.0463,0.0506,0.0586,0.0613,0.0623,0.0649,0.0661,0.0677,0.0648,0.0626,0.0584,0.0517,0.0458,0.0377,0.0232,0.026,0.0145,0.0059,0.0053,0.0003,-0.005,-0.0094,-0.0071,-0.0286,-0.0033,-0.0032,-0.0031,0,0.0533,0.0599,0.0663,0.0673,0.0703,0.0721,0.0733,0.0723,0.0751,0.0721,0.0736,0.0635,0.0606,0.0446,0.0264,0.0248,0.0094,0.0047,-0.008,-0.0083,-0.0103,-0.0106,-0.0307,-0.0071,-0.0071,-0.007,-0.007,0,0.0616,0.0665,0.07,0.0734,0.0813,0.0795,0.0864,0.086,0.0874,0.0928,0.082,0.0843,0.062,0.0502,0.0309,0.0113,0.0124,-0.0063,-0.0104,-0.0069,-0.0068,-0.0296,-0.04,-0.0074,-0.0073,-0.0072,-0.0072,0,0.0676,0.0699,0.0776,0.0826,0.0849,0.09,0.0963,0.1007,0.1013,0.1083,0.1081,0.1004,0.0865,0.0626,0.038,0.0197,-0.013,-0.0095,-0.0033,-0.0065,-0.0376,-0.0473,-0.0704,-0.0815,-0.0237,-0.0238,-0.0238,0,0.0714,0.0763,0.0847,0.0898,0.0924,0.0999,0.1052,0.1079,0.1138,0.1193,0.1236,0.1137,0.11,0.0739,0.0386,0.0052,-0.0157,-0.0149,-0.0183,-0.0385,-0.0525,-0.0606,-0.0689,-0.0175,-0.0175,-0.0175,-0.0175,0,0.0791,0.0812,0.0871,0.0985,0.1054,0.1146,0.1228,0.1303,0.1348,0.1427,0.1507,0.1488,0.1165,0.0855,0.0391,0.0153,-0.0286,-0.0162,-0.0393,-0.0506,-0.0586,-0.0713,-0.0128,-0.0177,-0.0176,-0.0176,-0.0176,-0.0176,0.0833,0.089,0.0966,0.1069,0.1159,0.128,0.1377,0.1478,0.1614,0.1765,0.172,0.1766,0.1304,0.0693,0.0313,-0.0313,-0.0325,-0.0495,-0.0599,-0.0666,-0.0769,-0.018,-0.0262,-0.0263,-0.0263,-0.0263,-0.0264,0,0.089,0.0949,0.1047,0.117,0.1276,0.132,0.1483,0.1601,0.1789,0.1946,0.2038,0.1869,0.1281,0.0679,-0.0171,-0.0657,-0.0843,-0.0915,-0.1036,-0.1104,-0.0597,-0.0591,-0.0721,-0.0721,-0.072,-0.072,-0.072,-0.072,0.0922,0.1017,0.1069,0.1248,0.1338,0.1508,0.1617,0.1816,0.1975,0.2211,0.2289,0.2282,0.1847,0.0274,-0.0824,-0.1089,-0.1422,-0.1489,-0.169,-0.1352,-0.1321,-0.1292,-0.1314,-0.1593,-0.1594,-0.2142,-0.2148,-0.2152]}],[{"header":{"parameterUnit":"m.s-1","parameterCategory":2,"la1":30.2991,"la2":30.254,"lo1":-89.0895,"lo2":-89.0444,"dy":0.0017,"dx":0.0017,"nx":28,"ny":28,"refTime":"2024-06-22T09:00:00:Z","depth":"2","parameterNumber":2,"parameterNumberName":"U-component_of_CURRENTS"},"data":[0,0,0,0,0,0,0,0,0,0,0,0,0,0,0,0,0,0,0,0,0,0,0,0,0,0,0,0,0,0,0,0,0,0,0,0,0,0,0,0,0,0,0,0,0,0,0,0,0,0,0,0,0,0,0,0,0,0,0.2418,0.2419,0,0.2532,0.2534,0.2535,0.2587,0.2586,0.2586,0.2586,0.2634,0.2635,0.2637,0,0,0,0,0,0,0,0,0,0,0,0,0,0.2256,0.2258,0.2418,0.2419,0.242,0.2532,0.2534,0.2535,0.2587,0.2586,0.2586,0.2586,0.2634,0.2635,0.2637,0,0,0,0,0,0,0,0,0,0,0,0,0,0.2344,0.2259,0.2417,0.246,0.2465,0.2532,0.2534,0.2536,0.2587,0.2586,0.2586,0.2586,0.2633,0.2635,0.2637,0.2654,0,0,0.2643,0.2644,0,0,0,0,0,0,0,0,0.2338,0.2349,0.2452,0.2457,0.2463,0.2545,0.2494,0.2572,0.2587,0.254,0.2586,0.2586,0.2598,0.2603,0.2626,0.2656,0.2658,0.2644,0.2645,0.2646,0.2646,0,0,0,0,0,0,0,0.2332,0.2345,0.2463,0.2454,0.246,0.2477,0.2489,0.2509,0.2567,0.2544,0.2548,0.2561,0.2601,0.2624,0.2627,0.2659,0.2644,0.2645,0.2647,0.2648,0.2723,0.2724,0,0,0,0,0,0,0.2318,0.2339,0.2459,0.2466,0.2399,0.248,0.2494,0.2519,0.2569,0.2577,0.2561,0.2563,0.2621,0.2625,0.2629,0.2691,0.2646,0.2648,0.2649,0.2723,0.2724,0.2724,0,0,0,0,0,0,0.2315,0.2329,0.2455,0.2404,0.2422,0.2483,0.2511,0.2521,0.2551,0.2583,0.2589,0.2581,0.2621,0.2626,0.2657,0.2691,0.2649,0.2651,0.2722,0.2723,0.2724,0.2788,0,0,0,0,0,0,0.231,0.2327,0.2337,0.2404,0.2424,0.2507,0.2511,0.2523,0.2559,0.2563,0.2601,0.2606,0.2621,0.2654,0.2659,0.2693,0.2652,0.2721,0.2722,0.2724,0.2785,0.2791,0.2797,0,0,0,0,0,0.2304,0.2331,0.2337,0.2351,0.2437,0.2508,0.2521,0.2563,0.256,0.2585,0.2604,0.2605,0.2666,0.2656,0.2662,0.2698,0.272,0.2722,0.2724,0.2782,0.279,0.2797,0,0,0,0,0,0,0.2271,0.234,0.2348,0.2395,0.2447,0.2517,0.2545,0.2564,0.2601,0.2598,0.2618,0.2625,0.2665,0.2665,0.2653,0.2721,0.2692,0.2695,0.2735,0.2742,0.2748,0.2739,0.2654,0,0,0,0,0,0.2264,0.2302,0.2366,0.2403,0.2428,0.2481,0.2511,0.254,0.2582,0.26,0.2622,0.2643,0.2677,0.2695,0.2717,0.2754,0.2763,0.2778,0.2784,0.2789,0.2784,0.2841,0.2852,0.273,0.273,0.273,0,0,0.2262,0.2304,0.2325,0.2397,0.2439,0.2493,0.2501,0.2554,0.2595,0.2596,0.2647,0.2664,0.2689,0.2738,0.2756,0.2743,0.2827,0.2791,0.2796,0.2787,0.2844,0.2856,0.2867,0.2731,0.2731,0.2731,0,0,0.2286,0.2314,0.2354,0.24,0.2463,0.2501,0.2514,0.258,0.2606,0.2656,0.2667,0.2698,0.2746,0.2777,0.2798,0.2844,0.2855,0.2852,0.2883,0.2939,0.295,0.2959,0.2986,0.2998,0.2858,0.2858,0.2858,0,0.2278,0.2338,0.2377,0.243,0.2468,0.2504,0.2556,0.2596,0.2659,0.2691,0.2676,0.275,0.2768,0.2834,0.2855,0.286,0.2884,0.286,0.2949,0.2959,0.2967,0.2993,0.3005,0.2862,0.2861,0.2861,0.2861,0,0.2334,0.2381,0.2412,0.2487,0.2533,0.2584,0.2641,0.2676,0.2699,0.2747,0.2802,0.2816,0.2868,0.2876,0.2886,0.2958,0.2953,0.2951,0.2935,0.2984,0.3007,0.3018,0.2866,0.2865,0.2864,0.2863,0,0,0.232,0.243,0.2438,0.2471,0.2564,0.2602,0.2673,0.2755,0.2804,0.2838,0.2898,0.2945,0.2954,0.2973,0.2978,0.3009,0.3095,0.3011,0.3013,0.3044,0.3211,0.3214,0.3226,0.3124,0.3126,0.3128,0.3203,0,0.235,0.2452,0.2497,0.2573,0.2628,0.2675,0.2743,0.2815,0.2872,0.2936,0.2954,0.3024,0.2994,0.3025,0.3052,0.3091,0.3128,0.3073,0.3152,0.3154,0.3157,0.3241,0.302,0.307,0.3214,0.3216,0.3217,0,0.2376,0.2449,0.2535,0.2621,0.2647,0.2693,0.2789,0.2855,0.2965,0.301,0.307,0.3107,0.3168,0.3125,0.3205,0.3179,0.3203,0.3209,0.3213,0.3198,0.3179,0.3044,0.3085,0.3236,0.3234,0.3233,0.3232,0,0.234,0.2453,0.2516,0.255,0.2667,0.2701,0.2767,0.2886,0.294,0.3074,0.3124,0.3204,0.324,0.3284,0.3319,0.3288,0.3388,0.3353,0.3364,0.3363,0.3179,0.3159,0.3411,0.3411,0.3411,0.3411,0.341,0,0.2338,0.2383,0.25,0.2534,0.2606,0.2692,0.277,0.2857,0.2965,0.3043,0.3158,0.3213,0.3287,0.3356,0.3367,0.3414,0.3446,0.3386,0.3398,0.3195,0.3177,0.3314,0.3302,0.3413,0.3413,0.3412,0.3412,0,0.2273,0.2357,0.2427,0.2551,0.259,0.2639,0.2756,0.2815,0.294,0.3034,0.3086,0.3243,0.3366,0.3421,0.3507,0.3483,0.3527,0.3531,0.328,0.3263,0.3441,0.3431,0.3552,0.3553,0.3554,0.3554,0.3555,0,0.2263,0.2288,0.2415,0.2461,0.2512,0.26,0.2667,0.2794,0.2858,0.3043,0.3079,0.3254,0.3354,0.349,0.353,0.3583,0.3582,0.3381,0.3281,0.3463,0.3463,0.3451,0.344,0.3049,0.3046,0.3043,0.304,0,0.2221,0.2246,0.23,0.2407,0.2472,0.2532,0.2635,0.2661,0.2811,0.2902,0.3032,0.3136,0.3333,0.3331,0.3442,0.3426,0.3361,0.3327,0.3601,0.3066,0.3001,0.2997,0.3,0.3014,0.3017,0.3019,0.302,0.3021,0.2187,0.2189,0.2254,0.2322,0.2399,0.2431,0.2441,0.2541,0.2604,0.2707,0.2885,0.298,0.3104,0.3187,0.3131,0.3107,0.3316,0.3157,0.316,0.3168,0.3115,0.3058,0.3069,0.3072,0.3074,0.3077,0.3078,0,0.2126,0.2126,0.218,0.224,0.2248,0.234,0.239,0.2369,0.2395,0.2576,0.268,0.2579,0.2659,0.276,0.2719,0.2764,0.2668,0.263,0.2474,0.2508,0.2535,0.2441,0.2221,0.2217,0.2213,0.221,0,0,0.2094,0.2094,0.2082,0.2056,0.2102,0.2082,0.2077,0.2089,0.2182,0.2203,0.228,0.2553,0.2727,0.2428,0.2433,0.2317,0.2369,0.2232,0.2942,0.2796,0.2818,0.2892,0.2795,0,0,0,0,0]},{"header":{"parameterUnit":"m.s-1","parameterCategory":2,"la1":30.2991,"la2":30.254,"lo1":-89.0895,"lo2":-89.0444,"dy":0.0017,"dx":0.0017,"nx":28,"ny":28,"refTime":"2024-06-22T09:00:00:Z","depth":"2","parameterNumber":3,"parameterNumberName":"V-component_of_CURRENTS"},"data":[0,0,0,0,0,0,0,0,0,0,0,0,0,0,0,0,0,0,0,0,0,0,0,0,0,0,0,0,0,0,0,0,0,0,0,0,0,0,0,0,0,0,0,0,0,0,0,0,0,0,0,0,0,0,0,0,0,0,-0.0329,-0.033,0,-0.0408,-0.0409,-0.041,-0.0471,-0.0472,-0.0472,-0.0472,-0.0523,-0.0524,-0.0525,0,0,0,0,0,0,0,0,0,0,0,0,0,-0.0312,-0.0312,-0.0329,-0.033,-0.0331,-0.0408,-0.0409,-0.0411,-0.0471,-0.0472,-0.0472,-0.0472,-0.0523,-0.0524,-0.0526,0,0,0,0,0,0,0,0,0,0,0,0,0,-0.035,-0.0312,-0.0329,-0.0368,-0.0372,-0.0408,-0.0409,-0.0411,-0.0471,-0.0472,-0.0472,-0.0473,-0.0523,-0.0524,-0.0526,-0.0525,0,0,-0.0531,-0.0531,0,0,0,0,0,0,0,0,-0.0348,-0.0351,-0.0362,-0.0366,-0.037,-0.0428,-0.0422,-0.0447,-0.0471,-0.0437,-0.0472,-0.0473,-0.0487,-0.0491,-0.0509,-0.0528,-0.053,-0.0531,-0.0532,-0.0532,-0.0533,0,0,0,0,0,0,0,-0.0345,-0.0349,-0.0363,-0.0362,-0.0368,-0.041,-0.0415,-0.0428,-0.0459,-0.044,-0.0444,-0.0448,-0.0489,-0.0508,-0.0511,-0.0531,-0.0531,-0.0532,-0.0533,-0.0534,-0.0556,-0.0556,0,0,0,0,0,0,-0.0325,-0.0345,-0.0361,-0.0365,-0.0357,-0.0409,-0.0415,-0.0411,-0.046,-0.0467,-0.0447,-0.045,-0.0505,-0.0509,-0.0513,-0.0482,-0.0532,-0.0534,-0.0535,-0.0557,-0.0556,-0.0556,0,0,0,0,0,0,-0.0324,-0.0325,-0.0357,-0.0356,-0.0363,-0.0408,-0.0403,-0.0412,-0.0425,-0.0466,-0.0473,-0.0449,-0.0505,-0.0511,-0.0508,-0.0486,-0.0534,-0.0536,-0.0557,-0.0556,-0.0556,-0.0442,0,0,0,0,0,0,-0.0323,-0.0324,-0.0311,-0.0354,-0.0362,-0.0366,-0.0403,-0.0414,-0.0426,-0.0431,-0.047,-0.0476,-0.0506,-0.0505,-0.051,-0.0489,-0.0537,-0.0557,-0.0557,-0.0556,-0.0446,-0.0438,-0.0431,0,0,0,0,0,-0.0322,-0.03,-0.031,-0.0312,-0.0343,-0.0365,-0.0373,-0.041,-0.0425,-0.0424,-0.0445,-0.0474,-0.0506,-0.0505,-0.0511,-0.049,-0.0558,-0.0557,-0.0556,-0.045,-0.044,-0.0431,0,0,0,0,0,0,-0.027,-0.0305,-0.0317,-0.0301,-0.0326,-0.0374,-0.0373,-0.0399,-0.0418,-0.0416,-0.0458,-0.0465,-0.046,-0.0492,-0.0492,-0.0499,-0.0541,-0.0541,-0.0459,-0.0449,-0.0441,-0.0436,-0.0538,0,0,0,0,0,-0.0253,-0.0254,-0.0289,-0.0273,-0.0282,-0.0325,-0.0337,-0.0361,-0.0385,-0.0395,-0.0417,-0.0444,-0.0463,-0.0467,-0.0492,-0.0483,-0.0525,-0.048,-0.0472,-0.0465,-0.0466,-0.0502,-0.0497,-0.0553,-0.0553,-0.0553,0,0,-0.0222,-0.0245,-0.024,-0.0263,-0.0285,-0.0289,-0.0334,-0.0342,-0.0338,-0.0394,-0.0383,-0.0413,-0.0456,-0.0452,-0.0453,-0.0472,-0.047,-0.0464,-0.0457,-0.0463,-0.05,-0.0495,-0.049,-0.0553,-0.0553,-0.0553,0,0,-0.0178,-0.0184,-0.0179,-0.0196,-0.0225,-0.025,-0.0247,-0.0283,-0.0291,-0.0289,-0.0329,-0.0344,-0.0367,-0.0395,-0.0413,-0.0377,-0.0428,-0.0385,-0.0333,-0.0366,-0.0361,-0.0358,-0.0393,-0.0393,-0.0378,-0.0378,-0.0378,0,-0.014,-0.0136,-0.0177,-0.0179,-0.0177,-0.0226,-0.021,-0.0228,-0.0255,-0.0247,-0.027,-0.0313,-0.0345,-0.035,-0.0339,-0.0358,-0.0385,-0.0357,-0.0353,-0.0351,-0.0349,-0.0386,-0.0388,-0.0372,-0.0373,-0.0373,-0.0374,0,-0.0104,-0.0095,-0.0088,-0.0107,-0.0111,-0.0102,-0.013,-0.0132,-0.0146,-0.0159,-0.0162,-0.0215,-0.024,-0.0256,-0.0283,-0.0284,-0.0309,-0.0337,-0.037,-0.0336,-0.0378,-0.0382,-0.0364,-0.0366,-0.0368,-0.0369,0,0,-0.0034,-0.0056,-0.0054,-0.0047,-0.0067,-0.0068,-0.0053,-0.005,-0.0023,-0.0065,-0.0046,-0.0092,-0.0119,-0.0144,-0.0189,-0.0223,-0.023,-0.0263,-0.0267,-0.0285,-0.0299,-0.0304,-0.031,-0.0247,-0.0248,-0.0248,-0.0328,0,0.0011,0.0025,0.0006,0.0041,0.0052,0.0025,0.005,0.0047,0.0048,0.0055,-0.0013,-0.0005,-0.0075,-0.0074,-0.0123,-0.0201,-0.0237,-0.0206,-0.0342,-0.0346,-0.0344,-0.0314,-0.0272,-0.0339,-0.0333,-0.0334,-0.0334,0,0.0048,0.0053,0.0093,0.0115,0.0122,0.0146,0.0183,0.0202,0.0199,0.0199,0.0173,0.0128,0.0073,0.0006,-0.0124,-0.0096,-0.0185,-0.0261,-0.0266,-0.0317,-0.0359,-0.0377,-0.0348,-0.0342,-0.0341,-0.0341,-0.034,0,0.0098,0.0116,0.0155,0.0161,0.0176,0.021,0.0236,0.0259,0.0294,0.0306,0.032,0.0243,0.0207,0.008,-0.0074,-0.0088,-0.0228,-0.0271,-0.0369,-0.0371,-0.0388,-0.0391,-0.0365,-0.0365,-0.0365,-0.0365,-0.0364,0,0.0144,0.0176,0.0187,0.0209,0.0287,0.028,0.0371,0.0391,0.0416,0.0482,0.041,0.042,0.0226,0.0121,-0.0033,-0.0205,-0.0196,-0.0357,-0.0388,-0.0347,-0.0345,-0.0395,-0.0398,-0.0368,-0.0367,-0.0366,-0.0366,0,0.0187,0.0191,0.0236,0.0276,0.0314,0.037,0.046,0.0515,0.054,0.0613,0.0621,0.0544,0.0429,0.0223,0.0019,-0.0139,-0.0307,-0.0372,-0.031,-0.0333,-0.0444,-0.0439,-0.0494,-0.0495,-0.0495,-0.0496,-0.0496,0,0.0212,0.0235,0.03,0.0358,0.0392,0.0478,0.0552,0.0589,0.0656,0.0702,0.0739,0.0648,0.061,0.0294,0.0015,-0.0252,-0.0297,-0.0396,-0.0427,-0.0429,-0.0455,-0.045,-0.0445,-0.0408,-0.0407,-0.0407,-0.0407,0,0.0257,0.0274,0.0316,0.0434,0.0522,0.0607,0.0719,0.0784,0.0842,0.0893,0.0953,0.0926,0.0649,0.0388,0.0018,-0.016,-0.0351,-0.04,-0.0413,-0.0374,-0.0353,-0.0377,-0.0374,-0.0405,-0.0405,-0.0405,-0.0405,-0.0405,0.0302,0.0341,0.0401,0.0515,0.0615,0.0735,0.0836,0.0934,0.1039,0.1154,0.1116,0.1109,0.0791,0.0342,0.0003,-0.0341,-0.0336,-0.0454,-0.0453,-0.0453,-0.0421,-0.0401,-0.0457,-0.0457,-0.0458,-0.0458,-0.0458,0,0.0344,0.0396,0.0492,0.0616,0.0722,0.0773,0.0942,0.1033,0.1184,0.1292,0.1346,0.1092,0.0785,0.0427,-0.0087,-0.0408,-0.0431,-0.0494,-0.0461,-0.0459,-0.0459,-0.0428,-0.0466,-0.0467,-0.0468,-0.0469,0,0,0.0376,0.0456,0.0497,0.0674,0.0781,0.0943,0.1052,0.1198,0.1311,0.1419,0.1446,0.1397,0.0943,0.0571,0.0127,-0.017,-0.0235,-0.0218,-0.0173,-0.0079,-0.0075,-0.0395,-0.0339,0,0,0,0,0]}],[{"header":{"parameterUnit":"m.s-1","parameterCategory":2,"la1":30.2991,"la2":30.254,"lo1":-89.0895,"lo2":-89.0444,"dy":0.0017,"dx":0.0017,"nx":28,"ny":28,"refTime":"2024-06-22T09:00:00:Z","depth":"4","parameterNumber":2,"parameterNumberName":"U-component_of_CURRENTS"},"data":[0,0,0,0,0,0,0,0,0,0,0,0,0,0,0,0,0,0,0,0,0,0,0,0,0,0,0,0,0,0,0,0,0,0,0,0,0,0,0,0,0,0,0,0,0,0,0,0,0,0,0,0,0,0,0,0,0,0,0.1368,0.1369,0,0.1451,0.1452,0.1453,0.151,0.1511,0.1511,0.1511,0.1593,0.1594,0.1596,0,0,0,0,0,0,0,0,0,0,0,0,0,0.1254,0.1256,0.1368,0.1369,0.137,0.1451,0.1452,0.1453,0.151,0.1511,0.1511,0.1512,0.1592,0.1594,0.1596,0,0,0,0,0,0,0,0,0,0,0,0,0,0.1317,0.1257,0.1368,0.1408,0.1413,0.1451,0.1452,0.1454,0.151,0.1511,0.1511,0.1512,0.1591,0.1594,0.1597,0.1601,0,0,0.1605,0.1606,0,0,0,0,0,0,0,0,0.1314,0.1322,0.1401,0.1405,0.141,0.1471,0.1442,0.1503,0.151,0.1473,0.1512,0.1512,0.1551,0.1557,0.1572,0.1605,0.1608,0.1605,0.1607,0.1608,0.1608,0,0,0,0,0,0,0,0.1309,0.1318,0.1401,0.1402,0.1408,0.142,0.143,0.1454,0.1508,0.1477,0.1481,0.149,0.1554,0.1569,0.1574,0.1609,0.1605,0.1607,0.1609,0.161,0.1724,0.1725,0,0,0,0,0,0,0.1298,0.1314,0.1399,0.1404,0.1362,0.1422,0.1433,0.1451,0.1508,0.1517,0.1489,0.1492,0.1564,0.1571,0.1577,0.1663,0.1608,0.161,0.1612,0.1723,0.1724,0.1726,0,0,0,0,0,0,0.1296,0.1306,0.1395,0.136,0.1372,0.1423,0.1443,0.1452,0.15,0.1517,0.1527,0.1531,0.1565,0.1573,0.1622,0.1664,0.1611,0.1614,0.1721,0.1723,0.1725,0.1785,0,0,0,0,0,0,0.1292,0.1304,0.1329,0.136,0.1374,0.1437,0.1443,0.1453,0.1502,0.1508,0.1556,0.1562,0.1566,0.1618,0.1625,0.1666,0.1616,0.1719,0.1722,0.1724,0.1782,0.1789,0.1796,0,0,0,0,0,0.1288,0.1317,0.133,0.1341,0.1402,0.1438,0.1448,0.1485,0.1504,0.153,0.1561,0.1562,0.164,0.1622,0.1629,0.1672,0.1718,0.1721,0.1724,0.1778,0.1788,0.1796,0,0,0,0,0,0,0.1289,0.1326,0.1342,0.1384,0.1416,0.1448,0.1482,0.1503,0.155,0.1564,0.158,0.1589,0.1648,0.1649,0.1628,0.1712,0.168,0.1684,0.1718,0.1727,0.1734,0.1734,0.1618,0,0,0,0,0,0.1297,0.1327,0.1361,0.1398,0.1418,0.1456,0.1482,0.1505,0.154,0.1564,0.1595,0.1628,0.1661,0.1686,0.171,0.1757,0.1771,0.1789,0.1796,0.1802,0.1807,0.1856,0.1869,0.1736,0.1736,0.1736,0,0,0.1307,0.1333,0.1352,0.14,0.1432,0.1467,0.1475,0.1522,0.1556,0.1563,0.1631,0.1657,0.1679,0.1731,0.1758,0.1742,0.1851,0.1806,0.1811,0.1813,0.1861,0.1874,0.1886,0.1738,0.1738,0.1738,0,0,0.133,0.1368,0.1397,0.1426,0.1475,0.1497,0.1517,0.1564,0.1596,0.165,0.1668,0.1716,0.1768,0.1793,0.181,0.1871,0.1886,0.1887,0.1929,0.1977,0.1989,0.1999,0.2051,0.2065,0.1892,0.1892,0.1892,0,0.134,0.1383,0.1413,0.1446,0.1478,0.1514,0.1552,0.1586,0.1643,0.1673,0.1679,0.1776,0.1795,0.1862,0.1885,0.1889,0.1922,0.1895,0.1987,0.1998,0.2007,0.2058,0.2073,0.1896,0.1895,0.1895,0.1895,0,0.1376,0.1419,0.1443,0.1496,0.1534,0.1574,0.1615,0.1659,0.1701,0.1733,0.1814,0.1846,0.1903,0.1921,0.1925,0.2007,0.2012,0.199,0.1965,0.2024,0.2074,0.2089,0.19,0.1899,0.1898,0.1897,0,0,0.1371,0.145,0.1462,0.1491,0.1564,0.1591,0.1656,0.1717,0.1769,0.1824,0.1893,0.1955,0.1984,0.2005,0.2025,0.2068,0.2166,0.2066,0.2067,0.2118,0.2293,0.2179,0.2183,0.2169,0.2171,0.2173,0.2308,0,0.1392,0.1454,0.1496,0.1562,0.1596,0.165,0.1708,0.1768,0.1827,0.1899,0.1944,0.2018,0.2012,0.2058,0.2102,0.2155,0.2205,0.2133,0.2228,0.2231,0.2122,0.2196,0.2181,0.2319,0.2322,0.2324,0.2326,0,0.1407,0.1448,0.1515,0.1592,0.1616,0.1666,0.1764,0.1822,0.192,0.197,0.2047,0.2086,0.2178,0.2151,0.2277,0.2239,0.2275,0.2301,0.2307,0.2185,0.2142,0.2244,0.2352,0.235,0.2348,0.2346,0.2345,0,0.1372,0.1456,0.151,0.1538,0.1635,0.1684,0.1747,0.185,0.191,0.2028,0.209,0.2185,0.2262,0.2315,0.2384,0.2347,0.2511,0.2458,0.2388,0.2381,0.2416,0.2404,0.2536,0.2536,0.2536,0.2536,0.2535,0,0.136,0.1403,0.1502,0.1529,0.1601,0.168,0.1774,0.1847,0.1965,0.2047,0.2134,0.221,0.2311,0.2406,0.2432,0.2471,0.2558,0.2413,0.241,0.244,0.2429,0.2428,0.2413,0.2541,0.254,0.2539,0.2538,0,0.1307,0.1375,0.1435,0.1545,0.1586,0.1641,0.178,0.1837,0.1971,0.2083,0.2128,0.2273,0.2402,0.2488,0.2601,0.2538,0.2576,0.2565,0.2628,0.2624,0.24,0.2388,0.2485,0.2482,0.2479,0.2477,0.2476,0,0.1281,0.1309,0.1431,0.1469,0.1525,0.1621,0.1683,0.1824,0.1892,0.2105,0.2146,0.2322,0.2406,0.2479,0.2571,0.2629,0.2593,0.259,0.2448,0.2408,0.2397,0.2388,0.2379,0.2472,0.2471,0.2471,0.247,0,0.1226,0.1283,0.1334,0.1414,0.1485,0.1554,0.1662,0.1696,0.1869,0.2009,0.2116,0.2187,0.2336,0.2412,0.2494,0.2515,0.2571,0.2563,0.2566,0.2433,0.2394,0.2383,0.2377,0.2462,0.2463,0.2464,0.2464,0,0.1185,0.1205,0.1282,0.1341,0.142,0.146,0.1528,0.1617,0.1704,0.1931,0.1972,0.216,0.232,0.2359,0.2428,0.2454,0.2397,0.2289,0.2305,0.2315,0.2196,0.2117,0.2115,0,0,0,0,0,0.1132,0.1148,0.1198,0.1256,0.1326,0.1379,0.1498,0.157,0.1739,0.1769,0.1865,0.199,0.2101,0.2195,0.2189,0.2354,0.2404,0.2335,0.2285,0.2415,0.2424,0.2299,0,0,0,0,0,0,0.1097,0.1143,0.1166,0.1171,0.1191,0.1262,0.1331,0.1445,0.1472,0.1652,0.1724,0.1872,0.2011,0.2094,0.2153,0.2185,0.2112,0.2459,0.2454,0.2409,0.2418,0.2426,0.23,0,0,0,0,0]},{"header":{"parameterUnit":"m.s-1","parameterCategory":2,"la1":30.2991,"la2":30.254,"lo1":-89.0895,"lo2":-89.0444,"dy":0.0017,"dx":0.0017,"nx":28,"ny":28,"refTime":"2024-06-22T09:00:00:Z","depth":"4","parameterNumber":3,"parameterNumberName":"V-component_of_CURRENTS"},"data":[0,0,0,0,0,0,0,0,0,0,0,0,0,0,0,0,0,0,0,0,0,0,0,0,0,0,0,0,0,0,0,0,0,0,0,0,0,0,0,0,0,0,0,0,0,0,0,0,0,0,0,0,0,0,0,0,0,0,-0.0023,-0.0024,0,-0.0106,-0.0107,-0.0108,-0.0136,-0.0136,-0.0135,-0.0135,-0.0217,-0.022,-0.0222,0,0,0,0,0,0,0,0,0,0,0,0,0,0.0107,0.0105,-0.0023,-0.0024,-0.0025,-0.0106,-0.0107,-0.0108,-0.0136,-0.0136,-0.0135,-0.0135,-0.0216,-0.0219,-0.0222,0,0,0,0,0,0,0,0,0,0,0,0,0,0.0041,0.0105,-0.0023,-0.0049,-0.0052,-0.0106,-0.0107,-0.0108,-0.0136,-0.0136,-0.0135,-0.0135,-0.0215,-0.0219,-0.0223,-0.0255,0,0,-0.0234,-0.0236,0,0,0,0,0,0,0,0,0.0044,0.0036,-0.0044,-0.0047,-0.0051,-0.0111,-0.0091,-0.0157,-0.0136,-0.0104,-0.0135,-0.0135,-0.0182,-0.0188,-0.0205,-0.0258,-0.0262,-0.0234,-0.0237,-0.0238,-0.0239,0,0,0,0,0,0,0,0.0049,0.0039,-0.0055,-0.0045,-0.0049,-0.0058,-0.0067,-0.0104,-0.0144,-0.0107,-0.0109,-0.0119,-0.0184,-0.0201,-0.0207,-0.0263,-0.0234,-0.0237,-0.024,-0.0241,-0.0339,-0.034,0,0,0,0,0,0,0.0058,0.0043,-0.0053,-0.0058,-0.0002,-0.0061,-0.0071,-0.0092,-0.0144,-0.0152,-0.0119,-0.012,-0.0195,-0.0202,-0.021,-0.024,-0.0238,-0.0242,-0.0244,-0.0339,-0.0339,-0.034,0,0,0,0,0,0,0.0061,0.005,-0.0049,-0.0008,-0.0022,-0.0064,-0.0087,-0.0093,-0.0115,-0.0154,-0.0161,-0.0134,-0.0195,-0.0204,-0.0242,-0.0244,-0.0243,-0.0247,-0.0338,-0.0339,-0.0339,-0.0309,0,0,0,0,0,0,0.0065,0.0051,0.0038,-0.0008,-0.0024,-0.008,-0.0087,-0.0095,-0.0122,-0.0124,-0.0169,-0.0176,-0.0195,-0.0236,-0.0246,-0.0249,-0.025,-0.0338,-0.0339,-0.0339,-0.0309,-0.0308,-0.0307,0,0,0,0,0,0.0069,0.0044,0.0037,0.0026,-0.0041,-0.0081,-0.0089,-0.0117,-0.0123,-0.0134,-0.0162,-0.0174,-0.0247,-0.024,-0.0251,-0.0255,-0.0338,-0.0338,-0.0339,-0.031,-0.0308,-0.0307,0,0,0,0,0,0,0.0082,0.0038,0.0029,-0.0011,-0.004,-0.0085,-0.0103,-0.012,-0.0153,-0.0154,-0.0186,-0.0195,-0.0226,-0.025,-0.0241,-0.0286,-0.0292,-0.0296,-0.0266,-0.0265,-0.0264,-0.0243,-0.0253,0,0,0,0,0,0.0082,0.0058,0.0017,-0.0015,-0.0028,-0.0064,-0.0085,-0.0101,-0.0136,-0.015,-0.0179,-0.021,-0.024,-0.0258,-0.0287,-0.0319,-0.0334,-0.0328,-0.0327,-0.0326,-0.0316,-0.034,-0.034,-0.0343,-0.0343,-0.0342,0,0,0.0078,0.005,0.0035,-0.0012,-0.0037,-0.0052,-0.0076,-0.0106,-0.0116,-0.0154,-0.0179,-0.0211,-0.0248,-0.0276,-0.0292,-0.0295,-0.0335,-0.0327,-0.0325,-0.0317,-0.0341,-0.034,-0.034,-0.0343,-0.0343,-0.0343,0,0,0.0067,0.0035,0.002,0.0,-0.0033,-0.0052,-0.0059,-0.0101,-0.0115,-0.0146,-0.017,-0.0202,-0.0252,-0.0274,-0.0292,-0.0307,-0.0328,-0.0319,-0.0299,-0.0322,-0.0322,-0.0322,-0.0344,-0.0346,-0.0319,-0.0319,-0.0319,0,0.0067,0.0043,0.0009,-0.0004,-0.0013,-0.0048,-0.0053,-0.0078,-0.0124,-0.0132,-0.0147,-0.0211,-0.0247,-0.0274,-0.0279,-0.0303,-0.0319,-0.0299,-0.0319,-0.032,-0.032,-0.0343,-0.0346,-0.0318,-0.0318,-0.0318,-0.0318,0,0.0053,0.004,0.0028,0.0009,-0.0007,-0.0022,-0.0048,-0.0063,-0.0083,-0.0105,-0.0137,-0.0187,-0.0219,-0.0241,-0.0267,-0.0288,-0.0301,-0.0313,-0.0318,-0.0317,-0.0343,-0.0346,-0.0316,-0.0316,-0.0317,-0.0317,0,0,0.0043,0.0026,0.0024,0.0035,0.0004,-0.0005,-0.0018,-0.0035,-0.0033,-0.0082,-0.0085,-0.0148,-0.0172,-0.0194,-0.0233,-0.0261,-0.0287,-0.0287,-0.0289,-0.03,-0.0339,-0.0331,-0.0334,-0.0303,-0.0303,-0.0303,-0.0357,0,0.005,0.0048,0.0033,0.0043,0.0047,0.0026,0.0022,0.0003,-0.0018,-0.0031,-0.0083,-0.0106,-0.0155,-0.0169,-0.0205,-0.0262,-0.0293,-0.0271,-0.0345,-0.0347,-0.0332,-0.0336,-0.0304,-0.0359,-0.036,-0.036,-0.0361,0,0.0049,0.0053,0.0066,0.0083,0.0083,0.0083,0.0088,0.0081,0.0052,0.0038,0.0004,-0.0038,-0.0088,-0.0126,-0.022,-0.0204,-0.0267,-0.0315,-0.0319,-0.032,-0.0344,-0.0361,-0.0367,-0.0366,-0.0366,-0.0366,-0.0365,0,0.0076,0.0081,0.0101,0.0102,0.0106,0.0114,0.0118,0.01,0.0114,0.0084,0.0094,0.0018,-0.0002,-0.0094,-0.02,-0.0211,-0.0298,-0.0325,-0.0379,-0.0379,-0.0383,-0.0383,-0.0388,-0.0388,-0.0388,-0.0388,-0.0388,0,0.0091,0.0109,0.0118,0.0129,0.0167,0.0152,0.0184,0.0179,0.0181,0.0215,0.0136,0.0145,0.0006,-0.0063,-0.0174,-0.0278,-0.0279,-0.0371,-0.039,-0.0371,-0.0369,-0.0386,-0.0385,-0.039,-0.039,-0.0389,-0.0389,0,0.0114,0.0116,0.0148,0.0167,0.0181,0.0207,0.0246,0.0271,0.0265,0.031,0.0309,0.0244,0.0154,0.0013,-0.0132,-0.0226,-0.0341,-0.0379,-0.0341,-0.0358,-0.0417,-0.0414,-0.0447,-0.0447,-0.0447,-0.0447,-0.0448,0,0.0125,0.0142,0.0186,0.0218,0.0229,0.0268,0.0302,0.0315,0.0353,0.0379,0.0411,0.0337,0.0276,0.0094,-0.008,-0.0291,-0.0326,-0.0393,-0.0419,-0.0406,-0.0422,-0.0419,-0.0416,-0.0448,-0.0448,-0.0448,-0.0448,0,0.0154,0.0167,0.0198,0.0265,0.031,0.0369,0.0422,0.0462,0.0492,0.0491,0.0518,0.0412,0.0312,0.0127,-0.0036,-0.0192,-0.0356,-0.0395,-0.0397,-0.0422,-0.0407,-0.0422,-0.0419,-0.0448,-0.0448,-0.0448,-0.0448,0,0.018,0.0209,0.0253,0.0315,0.0383,0.0458,0.0477,0.0533,0.0571,0.0601,0.0609,0.049,0.0412,0.0179,0.003,-0.0125,-0.0179,-0.0242,-0.0253,-0.0255,-0.0195,-0.0148,-0.0118,0,0,0,0,0,0.0204,0.0242,0.0302,0.0376,0.0447,0.0488,0.0559,0.0572,0.0607,0.0649,0.0636,0.0548,0.0336,0.0232,0.0083,-0.0009,-0.0233,-0.0194,-0.0317,-0.045,-0.0449,-0.0412,0,0,0,0,0,0,0.022,0.0275,0.0307,0.0421,0.048,0.0565,0.0612,0.0633,0.0652,0.0664,0.0558,0.0506,0.0292,0.0436,0.0084,0.0032,-0.0069,-0.0298,-0.0302,-0.045,-0.045,-0.0449,-0.0411,0,0,0,0,0]}]]